NK2J Weather Reports


Display with metric or nautical units.
time (UTC)temp
F
wind
direction
speed
MPH
gust
MPH
rain 1hr
in
rain 24hr
in
rain mn
in
humidity
%
barometer
mb
20260507161133 78 7 2.0 3.0 0.00 0.00 0.00 27 1015.9
20260507160629 77 16 1.0 2.0 0.00 0.00 0.00 26 1015.9
20260507160126 76 352 2.0 2.0 0.00 0.00 0.00 28 1015.9
20260507155621 76 72 0.0 2.0 0.00 0.00 0.00 27 1015.9
20260507155118 75 60 0.0 1.0 0.00 0.00 0.00 27 1016.0
20260507154615 75 6 2.0 3.0 0.00 0.00 0.00 28 1015.9
20260507154113 75 275 0.0 4.0 0.00 0.00 0.00 28 1016.1
20260507153609 75 339 2.0 3.0 0.00 0.00 0.00 28 1016.0
20260507153105 75 346 1.0 3.0 0.00 0.00 0.00 30 1015.9
20260507152602 74 298 2.0 3.0 0.00 0.00 0.00 30 1016.0
20260507152058 73 305 4.0 4.0 0.00 0.00 0.00 29 1016.1
20260507151554 72 338 1.0 2.0 0.00 0.00 0.00 30 1016.0
20260507151051 73 4 2.0 3.0 0.00 0.00 0.00 31 1016.1
20260507150549 72 343 1.0 2.0 0.00 0.00 0.00 31 1016.0
20260507150045 71 342 2.0 2.0 0.00 0.00 0.00 31 1016.1
20260507145540 71 20 2.0 3.0 0.00 0.00 0.00 32 1016.2
20260507145038 70 320 1.0 3.0 0.00 0.00 0.00 32 1016.0
20260507144534 69 339 2.0 4.0 0.00 0.00 0.00 32 1016.0
20260507144032 69 332 1.0 3.0 0.00 0.00 0.00 33 1016.0
20260507143529 68 326 2.0 2.0 0.00 0.00 0.00 33 1016.1
20260507143026 67 320 1.0 2.0 0.00 0.00 0.00 34 1016.2
20260507142522 67 303 2.0 3.0 0.00 0.00 0.00 35 1016.0
20260507142013 67 295 2.0 3.0 0.00 0.00 0.00 34 1016.1
20260507141509 66 277 1.0 3.0 0.00 0.00 0.00 33 1016.1
20260507141007 66 8 0.0 2.0 0.00 0.00 0.00 35 1016.1
20260507140502 66 308 1.0 2.0 0.00 0.00 0.00 35 1016.1
20260507140000 65 303 2.0 2.0 0.00 0.00 0.00 36 1016.0
20260507135457 65 308 1.0 3.0 0.00 0.00 0.00 35 1015.8
20260507134954 65 308 2.0 2.0 0.00 0.00 0.00 34 1016.0
20260507134450 64 336 2.0 2.0 0.00 0.00 0.00 35 1015.9
20260507133946 63 283 2.0 2.0 0.00 0.00 0.00 36 1015.7
20260507133442 62 277 1.0 2.0 0.00 0.00 0.00 37 1015.8
20260507132935 61 278 1.0 2.0 0.00 0.00 0.00 38 1015.7
20260507132431 61 270 0.0 1.0 0.00 0.00 0.00 39 1015.6
20260507131927 60 263 0.0 0.0 0.00 0.00 0.00 40 1015.5
20260507131425 60 184 0.0 2.0 0.00 0.00 0.00 40 1015.4
20260507130921 60 326 1.0 2.0 0.00 0.00 0.00 39 1015.3
20260507130418 60 336 1.0 1.0 0.00 0.00 0.00 40 1015.4
20260507125917 60 280 1.0 2.0 0.00 0.00 0.00 40 1015.4
20260507125415 60 336 0.0 1.0 0.00 0.00 0.00 43 1015.4
20260507124912 59 326 0.0 1.0 0.00 0.00 0.00 42 1015.4
20260507124408 60 358 0.0 0.0 0.00 0.00 0.00 42 1015.5
20260507123906 60 303 0.0 0.0 0.00 0.00 0.00 42 1015.5
20260507123403 60 268 1.0 2.0 0.00 0.00 0.00 41 1015.4
20260507122859 60 303 1.0 2.0 0.00 0.00 0.00 42 1015.4
20260507122355 61 327 0.0 2.0 0.00 0.00 0.00 41 1015.3
20260507121851 61 311 1.0 3.0 0.00 0.00 0.00 42 1015.4
20260507121346 60 329 1.0 1.0 0.00 0.00 0.00 41 1015.3
20260507120844 61 324 0.0 1.0 0.00 0.00 0.00 43 1014.9
20260507120340 61 124 0.0 0.0 0.00 0.00 0.00 42 1015.0
20260507115837 61 324 0.0 1.0 0.00 0.00 0.00 41 1014.9
20260507115332 61 319 0.0 1.0 0.00 0.00 0.00 42 1015.1
20260507114828 61 350 1.0 3.0 0.00 0.00 0.00 43 1015.3
20260507114325 62 270 1.0 1.0 0.00 0.00 0.00 42 1015.3
20260507113823 62 320 1.0 2.0 0.00 0.00 0.00 43 1015.1
20260507113319 63 314 1.0 2.0 0.00 0.00 0.00 41 1015.1
20260507112817 63 31 0.0 0.0 0.00 0.00 0.00 41 1015.3
20260507112314 64 16 0.0 1.0 0.00 0.00 0.00 39 1015.3
20260507111812 63 304 1.0 2.0 0.00 0.00 0.00 40 1015.1
20260507111308 63 318 1.0 1.0 0.00 0.00 0.00 43 1015.3
20260507110804 64 93 0.0 0.0 0.00 0.00 0.00 39 1015.1
20260507110300 64 107 0.0 0.0 0.00 0.00 0.00 39 1015.0
20260507105758 63 100 0.0 0.0 0.00 0.00 0.00 40 1015.3
20260507105254 63 59 0.0 0.0 0.00 0.00 0.00 39 1015.1
20260507104751 64 59 0.0 0.0 0.00 0.00 0.00 39 1015.4
20260507104247 64 58 0.0 0.0 0.00 0.00 0.00 40 1015.1
20260507103744 64 48 0.0 0.0 0.00 0.00 0.00 38 1015.4
20260507103240 64 45 0.0 0.0 0.00 0.00 0.00 37 1015.3
20260507102736 65 84 0.0 0.0 0.00 0.00 0.00 37 1015.1
20260507102233 66 102 0.0 0.0 0.00 0.00 0.00 36 1015.4
20260507101729 66 133 0.0 0.0 0.00 0.00 0.00 35 1015.5
20260507101225 66 123 0.0 0.0 0.00 0.00 0.00 34 1015.5
20260507100722 67 112 0.0 0.0 0.00 0.00 0.00 33 1015.6
20260507100220 68 141 0.0 1.0 0.00 0.00 0.00 32 1015.6
20260507095718 67 157 1.0 1.0 0.00 0.00 0.00 32 1015.6
20260507095214 67 153 0.0 1.0 0.00 0.00 0.00 33 1015.7
20260507094711 67 144 0.0 1.0 0.00 0.00 0.00 33 1015.8
20260507094208 67 147 0.0 1.0 0.00 0.00 0.00 33 1015.7
20260507093705 67 175 1.0 2.0 0.00 0.00 0.00 33 1015.6
20260507093204 67 170 1.0 1.0 0.00 0.00 0.00 34 1015.7
20260507092700 67 178 0.0 1.0 0.00 0.00 0.00 33 1015.9
20260507092157 67 155 0.0 0.0 0.00 0.00 0.00 33 1015.9
20260507091653 67 188 0.0 0.0 0.00 0.00 0.00 33 1016.1
20260507091150 67 135 0.0 1.0 0.00 0.00 0.00 33 1016.0
20260507090645 67 166 0.0 0.0 0.00 0.00 0.00 34 1016.0
20260507090143 67 192 0.0 0.0 0.00 0.00 0.00 33 1016.1
20260507085640 67 179 0.0 1.0 0.00 0.00 0.00 33 1015.9
20260507085136 68 152 0.0 1.0 0.00 0.00 0.00 33 1016.1
20260507084633 68 196 0.0 1.0 0.00 0.00 0.00 33 1016.2
20260507084130 68 194 1.0 1.0 0.00 0.00 0.00 33 1016.0
20260507083626 68 191 1.0 2.0 0.00 0.00 0.00 33 1016.2
20260507083123 68 189 1.0 1.0 0.00 0.00 0.00 33 1016.2
20260507082619 68 178 0.0 2.0 0.00 0.00 0.00 33 1016.3
20260507082116 67 208 1.0 2.0 0.00 0.00 0.00 35 1016.2
20260507081612 67 162 2.0 2.0 0.00 0.00 0.00 35 1016.3
20260507081109 66 172 0.0 1.0 0.00 0.00 0.00 41 1016.3
20260507080606 66 177 1.0 1.0 0.00 0.00 0.00 39 1016.4
20260507075556 65 123 0.0 0.0 0.00 0.00 0.00 47 1016.4
20260507075053 65 166 0.0 0.0 0.00 0.00 0.00 47 1016.4
20260507074550 65 124 0.0 0.0 0.00 0.00 0.00 47 1016.4
20260507074049 65 115 0.0 0.0 0.00 0.00 0.00 47 1016.4
20260507073544 65 133 0.0 0.0 0.00 0.00 0.00 47 1016.4
20260507073041 65 3 0.0 0.0 0.00 0.00 0.00 47 1016.4
20260507072539 66 6 0.0 0.0 0.00 0.00 0.00 48 1016.3
20260507072036 66 332 0.0 0.0 0.00 0.00 0.00 47 1016.3
20260507071533 67 340 0.0 0.0 0.00 0.00 0.00 45 1016.3
20260507071030 67 345 0.0 0.0 0.00 0.00 0.00 43 1016.3
20260507070527 67 29 0.0 0.0 0.00 0.00 0.00 40 1016.2
20260507070024 67 26 0.0 0.0 0.00 0.00 0.00 40 1016.4
20260507065520 67 58 0.0 0.0 0.00 0.00 0.00 40 1016.2
20260507065017 67 93 0.0 0.0 0.00 0.00 0.00 40 1016.4
20260507064515 67 93 0.0 0.0 0.00 0.00 0.00 39 1016.4
20260507064014 68 111 0.0 0.0 0.00 0.00 0.00 38 1016.4
20260507063510 68 92 0.0 0.0 0.00 0.00 0.00 38 1016.3
20260507063008 69 297 0.0 1.0 0.00 0.00 0.00 37 1016.2
20260507062504 69 296 0.0 1.0 0.00 0.00 0.00 36 1016.3
20260507062001 69 17 0.0 0.0 0.00 0.00 0.00 35 1016.3
20260507061459 69 344 0.0 0.0 0.00 0.00 0.00 34 1016.4
20260507060957 70 101 0.0 0.0 0.00 0.00 0.00 33 1016.2
20260507060454 70 173 0.0 0.0 0.00 0.00 0.00 32 1016.2
20260507055950 70 187 0.0 0.0 0.00 0.00 0.00 33 1016.4
20260507055446 70 163 0.0 0.0 0.00 0.00 0.00 33 1016.3
20260507054943 70 125 0.0 0.0 0.00 0.00 0.00 35 1016.3
20260507054439 70 133 0.0 0.0 0.00 0.00 0.00 33 1016.2
20260507053936 70 135 0.0 0.0 0.00 0.00 0.00 33 1016.2
20260507053434 70 130 0.0 0.0 0.00 0.00 0.00 32 1016.3
20260507052932 71 87 0.0 0.0 0.00 0.00 0.00 32 1016.2
20260507052429 71 107 0.0 0.0 0.00 0.00 0.00 32 1016.2
20260507051926 70 183 0.0 0.0 0.00 0.00 0.00 33 1016.2
20260507051424 70 112 0.0 0.0 0.00 0.00 0.00 32 1016.1
20260507050921 70 110 0.0 0.0 0.00 0.00 0.00 31 1016.2
20260507050417 71 110 0.0 0.0 0.00 0.00 0.00 30 1016.2
20260507045914 71 109 0.0 0.0 0.00 0.00 0.00 30 1016.2
20260507045411 72 109 0.0 0.0 0.00 0.00 0.00 30 1016.0
20260507044908 73 116 0.0 0.0 0.00 0.00 0.00 29 1016.0
20260507044405 73 123 0.0 0.0 0.00 0.00 0.00 29 1016.0
20260507043900 73 126 0.0 0.0 0.00 0.00 0.00 29 1015.9
20260507043352 73 107 0.0 0.0 0.00 0.00 0.00 29 1016.0
20260507042848 73 76 0.0 0.0 0.00 0.00 0.00 27 1015.9
20260507042344 73 77 0.0 0.0 0.00 0.00 0.00 28 1015.9
20260507041841 74 77 0.0 0.0 0.00 0.00 0.00 27 1015.8
20260507041338 75 71 0.0 0.0 0.00 0.00 0.00 27 1015.6
20260507040835 74 68 0.0 0.0 0.00 0.00 0.00 26 1015.7
20260507040330 74 76 0.0 0.0 0.00 0.00 0.00 27 1015.7
20260507035826 75 76 0.0 0.0 0.00 0.00 0.00 26 1015.6
20260507035322 75 76 0.0 0.0 0.00 0.00 0.00 26 1015.5
20260507034820 75 83 0.0 0.0 0.00 0.00 0.00 26 1015.5
20260507034316 76 84 0.0 0.0 0.00 0.00 0.00 25 1015.4
20260507033814 75 78 0.0 0.0 0.00 0.00 0.00 26 1015.3
20260507033312 75 82 0.0 0.0 0.00 0.00 0.00 26 1015.3
20260507032809 75 90 0.0 0.0 0.00 0.00 0.00 27 1015.1
20260507032306 76 90 0.0 0.0 0.00 0.00 0.00 26 1015.1
20260507031801 77 80 0.0 0.0 0.00 0.00 0.00 25 1014.9
20260507031258 77 95 0.0 0.0 0.00 0.00 0.00 25 1015.0
20260507030755 77 84 0.0 0.0 0.00 0.00 0.00 25 1014.9
20260507030252 78 79 0.0 0.0 0.00 0.00 0.00 24 1015.0
20260507025749 78 70 0.0 0.0 0.00 0.00 0.00 23 1014.9
20260507025246 78 79 0.0 0.0 0.00 0.00 0.00 24 1015.0
20260507024745 78 67 0.0 0.0 0.00 0.00 0.00 23 1014.9
20260507024241 78 76 1.0 1.0 0.00 0.00 0.00 24 1014.7
20260507023737 79 75 0.0 1.0 0.00 0.00 0.00 25 1014.7
20260507023234 79 70 0.0 1.0 0.00 0.00 0.00 23 1014.6
20260507022731 79 49 0.0 1.0 0.00 0.00 0.00 23 1014.5
20260507022227 79 36 0.0 1.0 0.00 0.00 0.00 23 1014.4
20260507021724 79 66 0.0 0.0 0.00 0.00 0.00 24 1014.5
20260507021219 79 53 0.0 1.0 0.00 0.00 0.00 23 1014.4
20260507020718 79 40 0.0 1.0 0.00 0.00 0.00 25 1014.4
20260507020214 80 45 0.0 1.0 0.00 0.00 0.00 23 1014.3
20260507015712 80 100 1.0 2.0 0.00 0.00 0.00 23 1014.3
20260507015209 80 63 0.0 2.0 0.00 0.00 0.00 22 1014.4
20260507014705 80 50 1.0 2.0 0.00 0.00 0.00 23 1014.3
20260507014201 80 60 0.0 2.0 0.00 0.00 0.00 22 1014.2
20260507013658 80 94 1.0 2.0 0.00 0.00 0.00 22 1014.4
20260507013155 81 134 3.0 6.0 0.00 0.00 0.00 23 1014.4
20260507012653 81 54 0.0 1.0 0.00 0.00 0.00 23 1014.3
20260507012148 81 65 1.0 2.0 0.00 0.00 0.00 22 1014.3
20260507011647 81 72 0.0 1.0 0.00 0.00 0.00 22 1014.5
20260507011142 81 30 0.0 3.0 0.00 0.00 0.00 22 1014.3
20260507010637 82 70 2.0 3.0 0.00 0.00 0.00 22 1014.2
20260507010133 81 115 1.0 3.0 0.00 0.00 0.00 22 1014.2
20260507005631 81 105 5.0 7.0 0.00 0.00 0.00 22 1014.4
20260507005127 81 94 0.0 1.0 0.00 0.00 0.00 22 1014.3
20260507004624 82 103 3.0 4.0 0.00 0.00 0.00 22 1014.2
20260507004122 82 96 1.0 2.0 0.00 0.00 0.00 21 1014.2
20260507003618 82 58 1.0 1.0 0.00 0.00 0.00 21 1014.3
20260507003113 82 85 1.0 4.0 0.00 0.00 0.00 21 1014.3
20260507002610 82 48 0.0 2.0 0.00 0.00 0.00 22 1014.2
20260507002105 83 22 2.0 3.0 0.00 0.00 0.00 21 1014.3
20260507001602 82 94 1.0 2.0 0.00 0.00 0.00 22 1014.2
20260507001100 82 105 1.0 4.0 0.00 0.00 0.00 21 1014.3
20260507000556 82 91 4.0 9.0 0.00 0.00 0.00 21 1014.3
20260507000051 83 121 6.0 7.0 0.00 0.00 0.00 21 1014.2
20260506235549 83 92 4.0 6.0 0.00 0.00 0.00 21 1014.1
20260506235044 82 78 0.0 2.0 0.00 0.00 0.00 22 1014.2
20260506234542 82 2 3.0 4.0 0.00 0.00 0.00 22 1014.2
20260506234039 82 23 1.0 3.0 0.00 0.00 0.00 22 1014.5
20260506233536 81 95 6.0 7.0 0.00 0.00 0.00 23 1014.3
20260506233033 82 84 3.0 8.0 0.00 0.00 0.00 21 1014.4
20260506232529 82 138 1.0 6.0 0.00 0.00 0.00 23 1014.5
20260506232024 81 116 6.0 9.0 0.00 0.00 0.00 22 1014.3
20260506231522 81 129 4.0 4.0 0.00 0.00 0.00 22 1014.5
20260506231020 81 119 5.0 10.0 0.00 0.00 0.00 22 1014.5
20260506230516 83 111 8.0 10.0 0.00 0.00 0.00 21 1014.5
20260506230014 82 125 5.0 7.0 0.00 0.00 0.00 22 1014.7
20260506225510 81 86 3.0 4.0 0.00 0.00 0.00 22 1014.7
20260506225007 81 88 3.0 6.0 0.00 0.00 0.00 22 1014.7
20260506224504 83 99 2.0 2.0 0.00 0.00 0.00 22 1014.8
20260506224000 82 130 1.0 2.0 0.00 0.00 0.00 23 1014.7
20260506223456 81 187 1.0 2.0 0.00 0.00 0.00 23 1014.9
20260506222953 81 112 6.0 8.0 0.00 0.00 0.00 22 1014.9
20260506222450 80 140 4.0 8.0 0.00 0.00 0.00 23 1015.0
20260506221946 81 121 2.0 2.0 0.00 0.00 0.00 22 1015.0
20260506221444 80 24 1.0 2.0 0.00 0.00 0.00 24 1015.3
20260506220942 80 65 0.0 4.0 0.00 0.00 0.00 25 1015.1
20260506220437 81 100 2.0 3.0 0.00 0.00 0.00 22 1015.4
20260506215933 80 73 1.0 3.0 0.00 0.00 0.00 22 1015.3
20260506215430 81 80 2.0 8.0 0.00 0.00 0.00 23 1015.6
20260506214926 80 123 4.0 6.0 0.00 0.00 0.00 23 1015.4
20260506214423 80 129 4.0 4.0 0.00 0.00 0.00 22 1015.6
20260506213920 80 131 7.0 9.0 0.00 0.00 0.00 22 1015.7
20260506213413 80 117 4.0 6.0 0.00 0.00 0.00 24 1015.6
20260506212910 79 86 3.0 4.0 0.00 0.00 0.00 22 1015.8
20260506212406 79 337 5.0 6.0 0.00 0.00 0.00 24 1016.0
20260506211900 79 336 3.0 3.0 0.00 0.00 0.00 25 1016.0
20260506211357 79 116 5.0 7.0 0.00 0.00 0.00 22 1016.0
20260506210854 79 109 3.0 3.0 0.00 0.00 0.00 23 1016.1
20260506210350 79 133 5.0 7.0 0.00 0.00 0.00 23 1016.2
20260506205842 80 120 6.0 8.0 0.00 0.00 0.00 23 1016.4
20260506205338 78 140 0.0 1.0 0.00 0.00 0.00 24 1016.1
20260506204834 79 59 2.0 4.0 0.00 0.00 0.00 24 1016.6
20260506204332 79 108 2.0 4.0 0.00 0.00 0.00 24 1016.5
20260506203830 79 352 3.0 4.0 0.00 0.00 0.00 25 1016.5
20260506203327 79 114 4.0 4.0 0.00 0.00 0.00 25 1016.7
20260506202823 79 127 2.0 4.0 0.00 0.00 0.00 24 1016.7
20260506202320 79 122 5.0 6.0 0.00 0.00 0.00 25 1016.7
20260506201811 78 190 0.0 2.0 0.00 0.00 0.00 27 1016.8
20260506201309 78 76 1.0 1.0 0.00 0.00 0.00 25 1016.7
20260506200806 77 327 2.0 6.0 0.00 0.00 0.00 25 1016.6
20260506200301 78 14 2.0 4.0 0.00 0.00 0.00 27 1016.8
20260506195758 78 106 2.0 3.0 0.00 0.00 0.00 26 1017.1
20260506195255 78 51 2.0 11.0 0.00 0.00 0.00 26 1016.9
20260506194752 77 161 5.0 7.0 0.00 0.00 0.00 26 1017.0
20260506194248 77 87 2.0 7.0 0.00 0.00 0.00 26 1016.9
20260506193746 77 359 4.0 6.0 0.00 0.00 0.00 26 1017.0
20260506193243 76 174 3.0 4.0 0.00 0.00 0.00 27 1017.1
20260506192739 75 149 6.0 7.0 0.00 0.00 0.00 27 1017.2
20260506192236 77 132 8.0 10.0 0.00 0.00 0.00 27 1016.9
20260506191733 76 65 0.0 7.0 0.00 0.00 0.00 26 1017.4
20260506191229 76 133 4.0 6.0 0.00 0.00 0.00 28 1017.4
20260506190726 74 116 4.0 7.0 0.00 0.00 0.00 27 1017.4
20260506190223 76 127 2.0 4.0 0.00 0.00 0.00 29 1017.3
20260506185720 75 17 0.0 1.0 0.00 0.00 0.00 30 1017.5
20260506185216 74 95 2.0 4.0 0.00 0.00 0.00 30 1017.7
20260506184714 76 33 2.0 4.0 0.00 0.00 0.00 28 1017.7
20260506184211 75 321 3.0 6.0 0.00 0.00 0.00 29 1017.8
20260506183708 75 3 2.0 3.0 0.00 0.00 0.00 28 1017.8
20260506183203 74 65 1.0 4.0 0.00 0.00 0.00 27 1018.0
20260506182701 74 110 3.0 3.0 0.00 0.00 0.00 30 1018.1
20260506182158 73 127 4.0 8.0 0.00 0.00 0.00 29 1018.0
20260506181656 74 131 4.0 8.0 0.00 0.00 0.00 29 1018.1
20260506181153 73 18 0.0 3.0 0.00 0.00 0.00 30 1018.2
20260506180650 74 88 5.0 9.0 0.00 0.00 0.00 30 1018.3
20260506180146 75 65 0.0 3.0 0.00 0.00 0.00 32 1018.3
20260506175642 73 14 0.0 2.0 0.00 0.00 0.00 31 1018.2
20260506175139 72 123 2.0 8.0 0.00 0.00 0.00 31 1018.2
20260506174632 72 108 2.0 3.0 0.00 0.00 0.00 32 1018.3
20260506174128 72 109 0.0 4.0 0.00 0.00 0.00 31 1018.4
20260506173626 73 91 3.0 6.0 0.00 0.00 0.00 30 1018.2
20260506173122 72 280 0.0 3.0 0.00 0.00 0.00 33 1018.4
20260506172620 72 183 3.0 6.0 0.00 0.00 0.00 33 1018.1
20260506172116 72 60 0.0 3.0 0.00 0.00 0.00 32 1018.2
20260506171613 73 95 1.0 2.0 0.00 0.00 0.00 31 1018.1
20260506171110 71 339 1.0 2.0 0.00 0.00 0.00 32 1018.2
20260506170607 72 86 2.0 6.0 0.00 0.00 0.00 33 1018.2
20260506170059 71 195 1.0 2.0 0.00 0.00 0.00 33 1018.3
20260506165557 71 115 4.0 4.0 0.00 0.00 0.00 32 1018.2
20260506165054 71 130 2.0 3.0 0.00 0.00 0.00 33 1018.1
20260506164551 71 4 0.0 3.0 0.00 0.00 0.00 33 1018.2
20260506164048 72 13 2.0 3.0 0.00 0.00 0.00 32 1018.2
20260506163544 72 12 1.0 4.0 0.00 0.00 0.00 33 1018.2
20260506163039 72 41 1.0 1.0 0.00 0.00 0.00 34 1018.1
20260506162535 71 247 0.0 1.0 0.00 0.00 0.00 34 1018.1
20260506162027 70 198 0.0 2.0 0.00 0.00 0.00 34 1018.2